GFSNW_prec_cloud_003.txt.gz
Cloud_Cover
100 100 100 100 66 98 99 36 56 10 0 0 5 5 5 5 3 3 5 3 5 5 5 5 0 0 0 0 0 0 1 5 5 8 11 84 11 5 5 66 6 2 18 36
100 100 100 97 97 100 88 69 46 5 0 0 0 2 5 5 5 5 7 5 7 6 5 5 0 0 0 0 2 4 4 5 5 5 5 5 5 0 4 5 7 45 65 18
100 100 100 100 98 100 89 67 18 2 0 0 0 0 0 0 5 5 5 5 9 7 5 5 4 2 0 0 0 0 0 2 5 5 0 3 3 1 2 5 65 63 25 82
100 100 100 100 15 99 96 70 18 5 0 0 2 0 0 0 5 5 5 5 4 5 4 5 9 5 4 5 5 5 5 5 61 5 5 43 32 5 94 16 5 93 48 20
100 100 100 61 18 30 5 5 5 5 5 0 0 0 0 0 0 5 5 5 5 5 5 5 5 5 5 3 5 5 5 5 5 72 2 5 20 5 5 5 5 6 31 48
100 100 100 88 18 5 5 5 35 79 13 5 1 1 0 0 0 5 5 5 5 5 11 3 5 5 5 4 4 4 2 8 56 66 95 44 100 9 5 39 23 74 99 63
70 100 100 61 96 23 5 5 5 5 4 4 5 5 5 2 0 5 5 5 5 5 30 10 5 5 5 5 5 5 40 36 62 30 82 80 100 6 64 100 100 5 5 5
38 99 99 68 89 98 91 5 5 16 58 44 5 5 5 5 5 5 5 5 5 5 5 5 10 38 5 9 28 67 26 58 92 98 94 44 91 5 5 14 100 15 48 5
95 54 23 79 5 54 82 93 6 5 6 5 5 5 5 5 5 5 5 6 15 37 42 5 5 6 56 87 68 25 60 7 19 93 100 100 11 5 5 8 7 60 80 99
56 24 5 5 12 26 5 74 35 11 5 5 5 5 5 10 38 5 8 15 8 5 86 93 44 5 19 22 31 71 96 99 95 100 100 51 5 5 5 64 97 97 100 85
82 93 65 39 76 52 49 6 17 7 32 5 5 5 5 5 5 5 5 5 10 93 100 44 67 96 79 66 28 86 73 100 57 91 100 58 5 90 70 88 100 99 43 44
100 100 100 100 100 100 100 97 78 72 90 48 68 94 54 5 5 5 4 5 5 6 72 83 90 98 77 61 99 100 86 99 63 99 67 96 100 100 100 94 88 100 100 100
100 100 100 100 100 100 100 100 100 100 100 100 100 100 91 40 5 5 5 6 5 5 5 45 86 88 94 89 100 100 100 100 97 100 73 100 99 50 100 100 100 100 100 100
100 100 100 100 100 100 100 100 100 100 100 100 43 90 17 5 6 16 12 5 5 5 28 100 100 100 100 100 100 100 100 100 100 82 83 68 100 100 100 100 100 100 100 100
100 100 100 100 100 100 100 100 97 100 98 100 90 23 7 5 51 75 91 96 100 95 100 100 100 100 100 100 100 100 100 97 100 100 98 100 100 100 100 100 89 70 100 100
100 100 100 100 100 100 98 100 100 100 16 99 100 100 100 100 100 100 100 100 100 100 100 100 100 100 100 100 100 100 100 100 100 100 100 100 100 100 100 100 100 100 88 68
100 100 100 100 100 100 100 100 100 84 100 100 100 93 98 100 100 100 100 95 99 39 99 100 97 100 100 100 100 100 100 100 100 100 99 100 84 93 95 98 58 50 100 100
100 100 100 100 100 100 100 100 100 100 100 91 100 100 100 100 100 100 100 100 100 95 100 100 100 73 100 100 100 100 100 100 100 88 88 99 89 28 79 99 69 63 94 32
100 100 100 100 100 100 100 98 100 100 100 100 100 100 100 100 97 100 100 100 100 100 100 100 100 100 100 100 67 100 100 100 87 80 90 75 95 100 100 100 100 68 18 5
100 100 100 100 100 100 100 100 100 100 100 100 100 100 100 100 100 100 100 100 100 100 94 92 100 100 100 100 100 99 54 5 5 5 80 100 99 8 29 98 100 100 94 80
100 100 100 100 100 100 100 100 100 100 100 100 100 100 100 100 100 100 100 100 100 100 61 99 90 99 20 16 5 5 5 5 6 43 70 34 82 100 84 46 93 78 24 5
100 100 100 100 100 100 100 100 100 100 93 98 100 100 100 100 100 100 100 97 100 82 89 100 93 46 9 15 43 52 94 98 97 100 99 100 100 100 38 5 5 4 6 59
100 100 100 100 100 100 100 100 98 97 97 100 100 100 100 100 100 100 100 100 94 94 99 70 94 81 39 62 90 100 100 87 100 100 100 85 15 5 1 2 1 28 100 100
100 100 100 100 100 99 100 100 100 100 100 100 100 100 100 98 100 100 97 40 75 100 100 100 89 5 54 78 94 100 95 100 100 90 5 2 0 0 0 4 4 8 51 54
100 97 100 100 97 89 100 100 100 100 100 100 100 100 87 100 100 100 91 89 99 100 99 27 10 27 22 20 25 8 6 6 5 2 0 0 0 0 0 0 0 5 45 100
100 59 89 100 100 99 99 100 100 100 100 100 100 87 50 72 78 43 100 98 100 90 10 5 7 76 37 5 9 6 2 0 0 0 0 0 0 2 5 5 5 5 15 76
97 91 98 82 100 100 100 100 100 100 100 100 93 89 96 51 74 91 99 100 41 5 5 44 12 5 5 5 2 0 0 0 0 0 0 4 5 5 5 5 5 5 5 13

GFSNW_prec_cloud_006.txt.gz
Cloud_Cover
100 100 88 98 63 57 47 80 36 45 5 30 5 13 5 0 5 4 5 3 5 5 5 3 4 0 0 0 0 0 0 0 0 0 1 5 0 4 5 3 2 6 31 77
100 100 100 100 100 86 63 86 10 7 5 4 0 4 5 27 43 5 5 7 13 5 5 5 0 0 0 0 0 0 0 0 3 0 2 5 5 0 5 5 27 46 76 80
100 100 100 100 83 51 100 90 74 12 5 5 0 4 5 5 5 5 2 2 5 5 5 5 4 2 1 0 0 0 0 0 0 2 1 5 5 4 5 8 96 96 88 100
100 100 100 100 100 82 99 64 26 14 18 5 5 0 2 5 5 2 0 0 5 5 5 5 4 0 3 0 0 0 0 0 5 5 5 5 57 5 5 13 6 94 61 47
100 100 100 100 100 100 80 52 93 26 5 60 52 5 5 5 5 0 0 0 5 5 5 5 5 1 5 2 0 0 0 5 5 5 5 5 10 5 5 5 5 13 8 47
100 100 100 100 100 99 74 89 73 60 47 5 10 5 5 0 0 0 0 0 1 5 5 5 5 5 5 5 5 5 5 5 57 56 58 50 99 16 2 5 6 8 5 75
100 100 100 100 100 98 58 57 17 6 70 5 4 5 5 4 5 5 5 4 4 0 0 3 5 2 3 5 5 5 65 27 64 61 82 58 98 37 6 53 94 33 13 7
100 100 100 100 100 100 43 43 18 5 59 36 0 5 5 5 5 5 5 5 5 5 0 4 5 5 6 43 36 67 6 89 77 91 99 34 93 20 10 32 24 5 5 5
100 100 100 100 100 100 56 63 55 8 7 5 5 5 5 5 5 5 5 5 0 0 0 4 5 5 5 5 9 42 66 8 27 99 100 100 60 5 5 5 6 5 22 59
100 100 100 100 100 100 83 24 18 10 8 5 5 5 5 5 5 5 9 5 2 0 40 89 34 31 16 5 5 5 94 98 100 100 100 39 5 6 83 100 99 95 100 78
100 100 100 100 100 100 100 99 59 35 17 5 5 5 5 5 5 7 69 5 5 86 100 86 100 21 5 8 37 6 5 66 42 90 100 68 64 79 95 70 36 68 98 99
100 100 100 100 100 100 100 85 17 12 22 11 5 5 5 5 5 5 6 6 9 10 83 60 87 93 87 92 100 34 84 57 94 100 52 70 11 92 99 100 76 54 100 100
100 100 100 100 100 100 99 83 60 19 100 9 25 8 11 5 25 6 6 32 5 25 15 24 62 18 13 95 99 82 98 84 74 100 96 97 100 93 80 62 94 100 100 100
100 100 100 100 92 100 68 77 89 89 100 100 93 98 93 85 48 96 24 5 5 9 34 100 100 100 50 100 98 100 96 90 88 100 34 40 43 74 100 100 100 100 100 100
100 100 100 100 100 100 100 100 100 100 100 100 100 100 100 100 96 6 19 5 5 100 100 100 100 76 79 100 100 100 94 99 68 15 100 100 100 96 100 100 100 100 97 70
100 100 100 100 100 100 100 100 100 100 100 100 100 100 100 94 68 97 91 5 11 40 99 100 100 100 100 100 100 100 93 77 21 64 100 100 100 100 100 100 100 95 73 64
100 100 100 100 100 100 100 100 100 100 100 100 97 93 100 100 100 100 65 96 47 82 98 100 100 100 100 100 100 100 40 83 100 100 100 98 93 100 100 100 100 60 5 55
100 100 100 100 100 100 100 100 100 100 100 100 100 100 100 100 100 100 100 100 97 96 100 100 100 100 100 100 91 93 89 100 100 100 52 10 73 88 61 40 51 42 66 72
100 100 100 100 100 100 100 100 100 100 100 100 100 100 100 100 100 100 100 100 100 100 100 100 100 100 100 96 97 89 100 74 8 5 17 49 40 30 61 74 99 91 58 51
100 100 100 100 100 100 100 100 100 100 100 100 100 100 100 99 100 100 100 100 100 100 100 95 100 100 100 100 93 48 5 5 6 65 83 99 79 72 91 20 5 34 54 7
100 100 100 100 100 100 100 100 100 100 100 100 100 100 100 100 100 100 100 100 100 99 23 93 94 100 100 48 15 22 8 9 12 67 92 97 100 53 5 5 5 5 4 0
100 100 100 100 100 100 100 100 100 100 75 100 100 100 100 100 100 100 100 92 98 100 88 98 84 40 10 28 97 94 45 85 71 5 21 23 8 9 51 81 27 1 0 12
100 100 100 100 100 100 100 64 98 100 100 100 100 100 100 100 100 100 97 100 99 91 79 98 100 99 23 93 100 100 99 15 5 55 74 78 38 16 3 0 0 0 2 3
100 100 100 100 100 93 99 100 100 100 100 100 100 100 100 100 100 100 100 100 100 100 100 100 100 88 99 100 100 85 5 49 10 5 0 0 0 0 0 1 3 5 5 5
100 100 100 100 100 100 100 100 100 100 100 100 100 100 100 100 100 100 100 100 100 100 100 100 97 100 100 93 9 5 6 4 0 0 0 0 0 1 4 5 5 5 6 6
100 100 100 100 100 100 100 100 100 100 100 100 100 100 100 100 100 100 100 100 100 95 20 23 89 100 97 15 5 5 5 3 0 0 0 0 0 5 5 5 5 5 5 5
100 100 100 100 100 100 100 100 100 100 100 100 100 100 100 100 100 100 100 100 38 6 44 98 84 6 5 5 5 5 5 5 0 0 0 2 5 5 5 7 5 5 5 38

GFSNW_prec_cloud_009.txt.gz
Cloud_Cover
100 100 100 100 57 95 100 63 10 76 30 19 5 4 4 0 0 0 4 3 0 5 5 0 0 0 0 0 0 0 0 0 0 0 0 0 0 2 2 5 5 0 17 44
100 100 100 100 84 97 100 59 31 62 14 8 5 12 5 2 0 5 5 2 4 7 5 5 0 0 0 0 0 0 0 0 0 0 0 0 0 0 5 5 5 5 46 70
100 100 100 100 100 100 67 36 6 86 18 34 5 5 5 0 5 9 10 5 5 8 9 5 1 0 0 0 0 4 0 0 4 2 0 4 1 0 2 4 59 61 21 96
100 100 100 100 100 100 100 48 5 6 66 76 5 5 5 0 5 5 5 5 5 5 5 3 5 3 0 1 5 3 5 3 4 5 5 5 5 1 1 5 5 40 100 80
100 100 100 100 100 100 100 58 46 6 56 50 10 5 5 5 4 3 5 5 0 0 0 0 5 5 5 0 5 5 5 5 5 5 5 5 5 1 5 5 5 7 8 5
100 100 100 100 100 100 100 100 42 55 25 46 8 5 5 5 5 5 5 0 1 5 5 5 4 1 1 0 5 5 5 5 54 100 52 5 85 5 5 5 5 5 5 5
100 100 100 100 100 100 100 100 76 98 82 57 5 5 5 5 5 5 5 5 5 5 5 5 4 1 2 3 5 5 93 10 67 67 17 19 12 4 5 5 5 5 5 7
100 100 100 100 100 100 100 100 100 48 76 29 8 5 5 5 5 5 5 5 5 5 5 5 5 5 5 6 51 6 1 73 79 92 98 22 1 5 5 5 12 8 6 24
100 100 100 100 100 100 100 100 100 100 94 87 83 8 5 5 5 5 5 5 5 5 5 5 5 5 5 5 5 95 42 7 18 90 100 90 1 5 5 10 42 66 51 36
100 100 100 100 100 100 100 100 100 100 100 100 100 85 7 5 5 5 5 5 6 5 17 65 5 5 5 5 5 5 90 98 100 100 100 18 5 12 75 98 96 100 100 100
100 100 100 100 100 100 100 100 100 100 100 99 67 50 71 78 56 14 8 60 8 91 100 95 99 22 18 13 29 6 5 71 69 84 95 61 48 100 99 85 98 87 100 91
100 100 100 100 100 100 100 100 100 100 100 100 91 46 6 8 46 92 83 13 5 6 78 64 97 99 92 67 20 20 47 22 95 100 35 60 64 81 85 100 100 100 100 100
100 100 100 100 100 100 100 100 100 100 100 100 98 49 36 32 19 5 5 5 5 5 11 9 47 18 82 89 81 34 13 16 47 88 28 34 54 51 87 100 100 61 100 100
100 100 100 100 100 100 100 100 100 100 100 100 100 83 5 5 5 12 38 68 40 79 26 100 100 100 5 83 20 45 87 98 47 97 34 59 100 100 100 100 100 85 19 43
100 100 100 100 100 100 100 100 98 71 57 64 81 5 5 14 37 85 77 89 98 100 100 100 100 96 86 100 100 78 44 88 99 91 100 100 100 100 100 100 100 100 42 48
100 100 100 100 100 100 100 83 67 76 71 91 93 73 80 77 100 100 100 100 100 100 100 100 100 100 82 100 100 86 91 100 100 100 100 100 100 100 100 50 6 18 28 75
100 100 100 100 100 100 100 100 100 100 100 100 100 100 100 100 100 100 100 100 100 64 100 100 100 100 99 100 100 100 100 98 64 100 99 69 100 71 30 35 30 52 21 53
100 100 100 100 100 100 100 100 100 100 100 100 95 100 100 100 100 100 100 100 100 100 100 100 100 81 98 100 100 100 85 94 96 100 91 83 95 66 17 23 18 89 97 5
100 100 100 100 100 100 100 100 100 100 100 100 100 100 100 100 100 100 100 100 100 92 100 100 100 100 100 100 99 56 84 98 97 100 93 89 100 100 44 75 100 99 41 6
100 100 100 100 100 100 100 100 100 100 100 100 100 100 100 100 100 100 100 100 100 100 99 100 100 100 100 100 99 100 100 99 79 90 100 93 61 55 100 100 96 55 34 5
100 100 100 100 100 100 100 100 100 100 100 100 100 100 100 100 99 100 100 100 100 100 83 99 100 94 100 100 100 100 100 100 100 91 44 53 100 18 5 6 74 82 27 32
100 100 100 100 100 100 100 100 100 100 95 100 100 100 100 100 100 100 100 100 100 95 89 92 98 80 81 84 76 68 99 98 72 54 99 100 37 5 5 5 4 4 4 5
100 100 100 100 100 100 100 100 100 100 98 100 100 100 100 100 100 100 94 84 92 79 91 56 18 46 86 86 47 93 55 26 34 98 42 5 5 6 22 4 5 5 5 5
100 100 100 100 100 100 62 100 100 100 100 100 100 100 100 100 100 100 90 94 91 99 100 65 78 28 24 92 100 100 88 90 100 100 5 5 6 98 8 4 5 5 5 5
100 100 100 100 100 100 100 100 100 100 100 100 100 100 100 100 100 100 100 100 88 98 100 94 100 100 100 100 100 100 100 100 90 29 9 75 94 14 5 5 5 5 5 5
100 100 100 100 100 100 100 100 100 100 100 100 100 100 100 100 100 99 100 100 100 100 100 71 23 98 100 100 100 100 75 40 9 87 84 29 6 3 5 5 5 5 5 6
100 100 100 100 100 100 100 100 100 100 100 100 100 100 100 100 100 100 100 100 100 100 99 98 100 100 100 100 100 98 98 100 100 96 12 5 0 5 5 6 5 5 5 46

GFSNW_prec_cloud_015.txt.gz
Cloud_Cover
100 100 100 100 100 100 94 83 41 46 5 5 5 5 0 0 0 0 0 2 2 4 5 5 5 5 0 0 0 0 0 0 0 0 0 0 0 1 0 0 2 5 1 5
100 100 100 100 100 100 95 100 76 11 15 6 8 5 5 3 0 0 0 0 0 0 5 5 5 4 4 0 0 0 0 0 0 1 0 1 0 3 1 4 5 4 5 6
100 100 100 100 84 76 81 46 54 29 15 9 10 18 35 5 5 1 1 0 0 0 5 5 5 0 0 0 0 3 5 4 3 3 4 5 5 5 5 5 21 16 7 98
100 100 100 100 100 99 100 79 49 65 5 12 7 32 37 5 5 5 5 5 0 5 5 3 1 0 0 0 0 0 0 0 0 0 0 0 5 5 5 5 16 88 34 99
100 100 100 100 100 68 42 87 61 17 5 5 6 7 59 54 55 6 5 5 5 4 0 0 0 0 0 0 2 5 5 5 5 5 0 0 0 0 5 5 26 5 80 99
100 100 100 100 100 100 12 40 95 6 31 5 5 13 70 64 35 33 5 5 5 5 2 0 0 0 0 0 5 5 5 5 5 9 7 5 9 13 5 32 84 96 98 97
100 100 100 100 100 100 97 17 40 100 19 5 5 5 12 51 13 6 5 11 5 5 10 5 5 5 5 5 5 5 5 5 30 16 68 90 48 48 7 6 5 85 100 99
100 100 100 100 100 100 100 99 100 100 100 72 19 6 5 17 6 6 39 67 95 87 10 8 15 25 76 48 5 5 5 10 40 72 8 61 62 16 5 5 5 14 68 52
100 100 100 100 100 100 100 100 100 100 100 100 100 97 100 98 50 6 43 82 72 20 5 39 95 10 5 40 5 5 3 21 13 73 36 24 11 97 91 16 40 52 94 85
100 100 100 100 100 100 100 100 100 100 98 100 100 100 100 100 97 86 91 94 52 43 68 91 87 10 5 5 30 73 67 96 62 86 73 5 6 5 5 30 62 68 21 35
100 100 100 100 100 100 100 100 100 100 100 100 100 96 32 64 100 100 100 100 100 100 100 96 54 97 5 5 5 7 32 37 75 71 92 86 22 60 74 35 56 98 31 84
100 100 100 100 100 100 100 100 100 100 100 100 100 100 100 100 100 100 100 100 100 100 100 98 85 100 90 37 5 5 11 7 7 52 43 86 100 100 100 96 70 86 76 100
100 100 100 100 100 100 100 100 100 100 100 100 100 100 100 100 100 100 68 13 91 45 6 11 83 100 6 98 37 21 33 5 9 45 73 96 100 100 100 94 84 22 100 44
100 100 100 100 100 100 100 100 100 100 100 100 100 100 100 100 100 72 70 75 100 100 100 99 100 100 5 70 5 96 98 23 19 92 51 87 43 64 64 100 96 100 88 29
100 100 100 100 100 100 100 100 100 100 92 100 100 100 100 100 100 95 100 100 100 100 100 100 82 5 10 82 44 100 100 100 26 68 94 66 78 100 65 100 94 86 35 21
100 100 100 100 100 100 100 100 100 100 100 100 100 100 100 100 100 100 100 100 100 100 74 88 23 72 35 100 98 100 100 100 15 82 53 42 65 100 100 97 18 6 5 5
100 100 100 100 100 100 90 76 98 100 100 99 100 86 98 100 100 100 100 100 100 100 82 86 88 74 33 100 82 100 80 44 67 37 57 39 100 99 61 92 46 16 5 5
100 100 100 100 100 100 100 89 100 83 94 97 100 90 87 100 100 100 100 100 96 92 50 84 100 97 99 100 100 100 56 48 16 70 76 100 93 55 78 76 8 11 45 71
100 100 100 100 100 100 100 100 100 100 87 56 100 99 91 100 100 100 100 100 100 100 100 100 80 100 99 100 99 61 83 35 59 38 99 56 48 97 91 96 89 100 83 6
100 100 100 100 100 100 100 100 100 100 100 92 100 100 100 100 100 100 100 100 100 100 91 100 100 100 99 100 100 100 79 24 42 93 75 86 100 100 100 100 100 10 5 38
100 100 100 100 100 100 100 100 100 100 100 100 100 100 100 100 100 100 100 100 100 100 100 100 100 74 100 100 100 94 88 89 61 99 100 100 100 100 100 85 5 9 5 6
100 100 100 100 100 100 100 100 100 100 100 100 100 100 100 99 92 91 100 100 100 100 88 100 100 94 100 74 100 100 100 100 100 100 97 95 100 71 18 5 5 5 5 5
100 100 100 100 100 100 100 100 100 100 100 100 100 100 100 100 100 100 100 100 100 93 100 91 81 100 93 100 100 94 36 22 57 55 16 6 5 5 5 5 5 45 5 5
100 100 100 100 100 100 100 100 100 100 100 100 100 100 100 100 100 100 100 100 97 100 100 64 100 97 82 68 85 19 14 6 8 5 5 5 5 5 22 83 21 30 14 8
100 100 100 100 100 100 100 100 100 100 100 100 100 100 100 100 100 100 100 100 100 94 100 100 100 100 100 100 100 96 8 68 34 37 5 75 28 5 5 6 5 5 42 64
100 100 100 100 100 100 100 100 100 100 100 100 100 100 100 100 100 100 100 100 100 100 100 100 100 100 100 100 78 15 62 85 30 29 58 25 36 40 62 14 31 56 95 97
100 100 100 100 100 100 100 100 100 100 100 100 100 100 100 100 100 100 100 100 100 100 100 100 100 100 100 52 67 100 100 52 6 5 28 77 87 72 69 96 72 55 5 39

GFSNW_prec_cloud_018.txt.gz
Cloud_Cover
100 100 100 100 100 100 100 100 100 96 56 62 57 85 98 6 3 0 0 0 0 5 2 5 5 5 0 0 0 0 0 0 0 0 0 0 0 0 3 2 1 5 5 68
100 100 100 100 100 100 100 90 83 36 50 20 41 75 63 5 5 0 0 0 1 2 4 5 5 5 5 5 0 0 0 0 0 0 1 0 0 4 5 5 4 4 16 5
100 100 100 100 100 100 100 100 41 46 22 31 19 66 27 5 0 0 0 5 4 0 0 5 5 5 5 5 5 2 0 0 1 5 0 0 0 0 0 3 5 5 4 12
100 100 100 100 100 100 98 80 41 92 85 6 5 5 5 64 5 0 4 5 5 5 5 5 5 5 5 5 0 0 0 0 0 0 0 0 0 0 0 5 5 70 21 99
100 100 100 100 100 100 87 46 100 100 84 7 5 6 5 73 5 1 5 5 5 5 5 6 20 2 0 0 0 0 0 5 5 0 0 0 5 0 0 2 5 64 29 5
100 100 100 100 100 100 52 84 38 59 36 6 33 12 5 5 5 5 5 5 5 5 5 5 5 5 0 0 0 0 0 5 5 5 6 5 5 5 1 4 40 9 37 53
100 100 100 100 100 100 98 66 37 81 29 67 8 5 5 12 6 5 5 5 5 5 5 5 5 5 3 0 2 5 1 0 31 6 42 10 5 5 5 5 10 27 85 98
100 100 100 100 100 100 100 14 64 52 98 28 92 36 74 26 5 30 6 5 5 5 75 47 6 16 5 6 5 5 5 0 15 61 5 5 5 28 5 5 2 5 15 8
100 100 100 100 100 100 100 100 47 46 79 32 6 5 8 5 5 5 5 6 53 71 39 27 7 5 5 7 6 5 5 5 5 29 6 4 0 54 5 18 5 53 74 54
100 100 100 100 100 100 100 100 100 85 29 48 28 85 78 27 27 97 93 90 49 26 34 91 92 97 98 93 54 73 49 73 64 56 68 9 0 5 4 5 6 5 5 5
100 100 100 100 100 100 100 100 100 100 100 71 70 100 98 100 52 100 79 98 100 100 100 100 100 100 100 94 41 23 14 26 82 55 86 26 4 32 46 5 5 63 92 20
100 100 100 100 100 100 100 100 100 100 100 100 100 78 95 97 100 100 100 46 92 100 100 100 77 89 84 70 30 9 5 7 6 4 5 4 96 98 34 5 5 58 98 31
100 100 100 100 100 100 100 100 100 100 100 100 100 100 100 100 100 100 100 100 100 100 100 100 84 100 100 100 100 99 13 85 4 3 2 2 43 84 37 5 29 82 93 95
100 100 100 100 100 100 100 100 100 100 100 100 100 100 100 100 100 100 100 100 100 100 100 100 100 99 100 72 100 100 100 100 83 5 5 34 98 38 44 13 27 100 100 98
100 100 100 100 100 100 100 100 98 100 88 96 100 100 100 100 82 100 100 100 100 100 100 100 97 92 99 73 67 100 100 100 50 60 73 78 36 53 85 44 100 100 100 100
100 100 100 99 90 100 100 100 100 100 100 99 100 100 77 40 77 99 99 92 100 100 100 100 90 100 100 100 99 100 100 100 100 100 80 17 51 8 11 77 85 94 100 99
100 100 100 100 100 100 100 100 100 100 100 100 100 88 96 100 100 100 100 100 100 100 99 79 100 100 46 100 75 100 100 100 100 92 40 74 20 79 82 100 98 74 46 42
100 100 100 100 100 100 100 100 100 100 100 100 92 98 100 100 100 100 100 100 100 100 100 75 98 91 88 100 100 100 100 100 69 10 5 16 98 100 99 100 73 38 80 76
100 100 100 100 100 100 100 100 100 100 100 100 100 100 100 100 100 100 100 100 100 90 100 100 73 98 94 100 100 100 90 80 60 22 79 84 99 78 81 34 39 52 17 51
100 100 100 100 100 100 100 100 100 100 100 54 100 100 100 100 100 100 100 100 100 100 68 93 100 100 100 100 100 99 58 98 98 100 88 74 52 96 71 41 54 37 100 92
100 100 100 100 100 100 100 100 100 100 100 100 100 100 100 100 100 100 100 100 100 100 92 96 80 97 100 100 100 100 96 100 100 100 94 88 95 62 83 95 63 88 53 6
100 100 100 100 100 100 100 100 100 100 100 100 100 100 100 100 100 100 100 100 100 100 93 100 93 99 98 100 100 100 100 100 100 94 85 79 79 78 65 86 54 5 5 16
100 100 100 100 100 100 100 100 100 100 100 100 100 100 100 100 100 100 100 100 100 100 100 99 98 100 100 98 100 100 99 100 99 91 99 100 100 100 99 52 13 5 49 99
100 100 100 100 100 100 100 100 100 100 100 100 100 100 100 100 100 100 100 100 100 100 100 82 99 100 96 92 100 99 46 96 89 100 100 100 100 100 100 97 100 99 100 98
100 100 100 100 100 100 100 100 100 100 100 100 100 100 100 100 100 100 100 100 100 100 100 100 100 100 100 100 100 100 61 27 11 92 100 100 100 100 100 100 100 52 96 87
98 100 100 100 100 100 100 100 100 100 100 100 100 100 100 100 100 100 100 100 100 100 100 100 100 100 100 100 100 99 94 98 99 100 99 100 100 100 100 100 99 79 96 100
100 100 100 100 100 100 100 100 100 100 100 100 100 100 100 100 100 100 100 100 100 100 100 100 100 100 100 100 100 100 98 95 100 100 100 100 98 100 100 100 98 100 100 74

GFSNW_prec_cloud_021.txt.gz
Cloud_Cover
100 100 100 100 17 67 42 90 93 90 39 24 54 56 8 21 5 5 3 0 0 9 5 15 4 3 0 0 0 0 0 0 0 0 0 0 0 0 0 0 0 2 4 1
100 100 100 100 93 96 99 48 100 100 56 71 17 21 7 5 5 3 0 0 0 0 0 1 5 5 4 3 1 0 0 0 0 0 0 0 0 0 0 0 5 1 1 0
100 100 100 100 100 93 44 55 100 100 83 34 36 80 67 17 5 5 0 0 0 2 0 0 5 5 5 5 5 0 0 0 0 0 0 0 0 0 0 0 0 2 0 3
100 100 100 100 100 46 100 100 100 100 100 99 41 51 25 53 12 5 0 0 5 5 5 4 5 5 5 5 5 2 0 0 0 0 0 0 0 0 0 0 0 0 1 77
100 100 100 100 100 100 100 100 100 51 68 85 81 41 5 43 47 5 4 0 0 5 7 3 5 5 5 5 1 0 0 0 0 0 0 1 1 0 0 0 0 0 2 5
100 100 100 100 100 99 100 100 100 100 75 48 62 8 5 24 10 5 5 5 3 2 2 4 1 0 4 0 0 0 0 0 4 4 3 5 5 5 0 0 0 0 5 2
100 100 100 100 100 76 100 100 100 85 26 100 89 5 5 5 5 5 5 5 5 5 5 5 5 5 5 3 2 4 5 5 76 5 12 5 1 3 0 3 0 2 4 5
100 100 100 100 100 100 100 64 21 99 100 87 5 5 5 31 5 66 5 5 11 20 5 5 5 5 5 5 5 62 11 12 56 50 5 5 5 6 5 5 5 5 0 0
100 100 100 100 100 100 100 100 100 52 56 5 27 5 100 30 40 8 10 17 26 74 28 6 6 7 13 21 60 100 100 93 21 82 5 5 5 5 8 5 3 5 5 5
100 100 100 100 100 100 100 100 100 31 46 8 5 16 53 8 6 6 12 7 64 49 81 100 98 100 100 100 100 75 70 62 14 21 10 2 0 1 5 5 1 0 5 5
100 100 100 100 100 100 100 100 100 100 100 40 8 78 5 5 5 13 5 5 14 93 47 86 99 49 55 83 100 100 5 29 15 70 52 40 3 4 5 5 3 5 5 5
100 100 100 100 100 100 100 100 100 100 100 100 61 84 38 50 31 100 79 29 95 34 89 100 95 87 100 100 100 97 14 69 100 99 71 14 2 5 5 5 5 16 5 33
100 100 100 100 100 100 100 100 100 100 100 100 100 100 100 100 100 100 100 100 100 100 100 100 100 100 100 100 100 100 100 100 100 50 7 34 5 5 6 8 51 48 92 100
100 100 100 100 100 98 100 100 98 100 100 100 100 100 100 100 100 100 100 100 100 100 100 100 100 100 100 100 100 100 100 100 87 5 5 23 6 19 6 12 31 99 100 93
100 100 100 100 100 100 97 62 84 98 92 100 100 100 100 99 100 100 100 100 100 100 100 100 100 100 100 100 100 100 100 100 100 14 44 98 14 18 62 90 100 97 70 91
100 100 100 100 100 100 77 90 98 100 100 86 98 100 100 100 100 100 100 100 100 100 100 100 83 100 100 100 100 100 100 100 100 42 100 32 70 100 100 31 10 42 76 64
100 100 100 100 100 100 100 100 100 100 94 99 93 94 56 64 98 100 100 100 100 100 100 99 100 100 99 100 100 100 100 100 100 100 100 100 100 100 88 46 73 81 86 99
100 100 100 100 100 100 97 100 100 100 100 98 77 85 100 100 100 100 100 100 100 100 100 91 100 100 100 100 100 100 100 100 100 100 98 100 100 97 63 96 93 79 38 63
100 100 100 100 100 100 100 100 100 100 53 67 100 100 100 100 100 100 100 100 100 99 100 100 98 100 100 100 100 100 100 100 100 100 100 100 100 100 87 45 72 89 75 56
100 100 100 100 100 100 100 100 100 100 100 100 100 100 100 100 100 100 100 100 100 100 100 100 100 100 100 100 100 100 99 93 100 100 100 100 100 95 100 98 95 76 80 36
100 100 100 100 100 100 100 98 100 100 100 100 100 100 100 100 100 100 100 100 100 100 54 86 60 93 100 100 100 100 100 100 100 100 100 100 97 99 100 95 96 84 77 81
100 100 100 100 100 100 100 100 100 100 100 100 100 100 100 100 100 100 100 100 100 86 65 100 100 100 100 100 100 100 100 100 100 100 100 100 100 100 87 97 84 80 100 100
100 100 100 100 100 100 100 100 100 100 100 100 100 100 100 100 100 100 100 100 100 100 100 94 100 100 100 100 100 100 100 100 100 100 100 100 100 100 100 100 100 100 84 73
100 100 100 100 100 100 100 100 100 100 100 100 100 100 100 100 100 100 100 100 100 100 100 85 100 100 100 100 100 100 100 100 100 100 100 100 100 100 100 100 99 74 94 100
100 90 100 99 100 100 100 100 100 100 100 100 100 100 100 100 100 100 100 100 100 100 100 100 100 100 100 100 100 100 100 100 100 100 100 100 100 99 100 100 100 100 100 100
98 100 100 100 100 100 100 100 100 100 100 100 100 100 100 100 100 100 100 100 100 100 100 100 100 100 100 100 100 85 80 99 98 100 100 96 91 100 100 100 100 100 100 100
100 100 100 100 100 100 100 100 100 100 100 100 100 100 100 100 100 100 100 100 100 100 100 100 100 100 100 100 100 100 100 100 100 100 100 100 100 100 100 100 100 100 100 100

GFSNW_prec_cloud_024.txt.gz
Cloud_Cover
100 100 100 100 100 100 100 56 8 31 87 71 59 78 70 60 40 56 5 3 3 5 7 3 1 0 0 5 5 2 0 0 0 0 0 0 0 0 0 0 0 0 4 1
100 100 100 100 100 84 26 48 58 100 52 89 66 40 65 86 72 44 5 0 0 5 5 2 0 0 3 0 0 0 0 0 0 0 0 0 0 0 0 0 1 0 0 0
100 100 100 100 100 49 5 12 100 100 76 48 47 52 66 60 58 7 4 2 0 0 0 0 2 5 5 5 5 5 5 2 0 0 0 0 0 0 1 5 5 3 1 1
100 100 100 100 13 4 15 95 100 91 93 62 40 5 31 22 18 10 5 5 1 3 3 4 3 5 5 5 5 5 5 5 0 0 0 0 5 4 0 0 0 0 0 0
100 100 100 100 90 4 90 71 66 62 9 11 5 6 12 67 14 5 7 7 5 8 23 2 0 0 5 5 5 0 0 0 0 0 0 5 5 4 0 0 0 0 0 0
100 100 100 100 100 94 88 18 63 96 26 40 99 85 18 17 75 88 100 47 5 5 2 4 4 5 5 0 2 5 5 0 2 5 5 5 9 5 0 0 1 1 2 0
100 100 88 100 100 100 100 39 81 100 100 97 87 5 5 6 97 100 87 5 5 5 5 3 5 5 5 5 5 5 5 18 56 21 9 19 5 5 2 2 5 3 0 0
100 100 100 100 100 100 100 96 82 100 100 100 36 22 100 10 27 7 48 39 7 5 5 5 15 56 77 30 5 5 14 17 71 99 37 5 5 6 5 5 64 5 5 4
100 100 100 100 100 100 100 99 100 100 70 44 49 66 100 71 35 39 8 89 74 41 5 69 54 44 40 22 63 74 100 99 34 90 5 5 6 5 7 73 100 42 12 6
100 100 100 100 100 100 100 100 100 100 100 27 36 39 100 94 5 29 29 15 7 41 45 34 26 32 65 93 99 96 33 7 78 88 29 18 5 5 43 100 100 28 54 32
100 100 100 100 100 100 100 100 100 100 90 8 22 69 99 100 29 5 6 38 96 84 52 40 94 35 33 62 67 60 70 92 100 100 100 80 8 5 10 91 89 18 100 94
100 100 100 100 100 100 100 100 100 100 98 16 12 70 45 9 37 6 5 51 9 8 68 65 87 51 78 99 100 100 100 100 100 100 100 100 19 6 69 8 16 100 100 100
100 100 100 100 100 100 100 100 100 100 100 100 80 100 63 46 97 77 13 5 14 56 100 100 100 100 100 100 100 100 100 100 100 95 100 100 28 99 96 31 100 92 68 100
100 100 100 100 100 100 100 100 100 100 100 100 100 100 100 100 100 100 100 100 100 100 100 100 100 100 100 100 100 100 100 100 41 5 9 33 100 84 22 71 93 54 99 91
100 100 100 100 100 100 100 100 100 100 100 100 100 100 100 100 100 100 100 100 100 100 100 100 100 100 100 100 100 100 100 100 42 6 54 18 25 5 32 96 100 100 100 71
100 100 100 100 100 100 81 99 100 100 100 100 100 100 100 100 100 100 100 100 100 100 100 100 100 100 99 100 100 100 100 100 90 96 99 95 58 94 100 100 100 100 93 66
100 100 100 100 100 96 61 96 100 90 68 87 100 99 100 100 100 100 95 65 46 81 100 100 100 100 100 100 100 100 100 100 100 100 100 100 100 100 100 100 100 97 68 62
100 100 100 100 100 100 100 100 100 98 79 40 76 100 100 100 100 100 100 100 100 83 58 93 100 95 98 100 100 100 100 100 100 100 100 100 100 100 100 100 76 88 76 100
100 100 100 100 100 100 100 100 100 95 32 92 100 100 100 100 100 100 100 100 100 85 98 100 48 96 99 100 100 100 100 100 100 100 100 100 100 100 100 100 100 100 100 86
32 77 59 100 100 100 100 100 100 100 100 92 100 100 100 100 100 100 100 100 100 100 49 97 100 100 100 100 100 100 100 100 100 100 92 99 100 100 100 100 100 100 100 94
100 99 100 100 99 97 80 82 82 96 99 100 100 100 100 100 100 100 100 95 87 100 34 73 88 98 100 100 100 100 100 100 100 100 100 100 100 100 100 100 100 100 92 80
93 100 100 100 100 100 100 95 100 100 100 100 100 100 100 100 100 100 100 100 100 100 100 100 100 100 100 100 100 100 100 100 100 100 100 100 100 100 100 100 100 97 100 87
100 100 100 100 100 100 100 100 100 100 100 100 100 100 100 100 100 100 100 100 100 100 100 100 100 100 100 100 100 100 100 100 100 100 100 100 100 100 100 100 98 100 100 100
100 100 100 100 100 100 100 100 100 100 100 100 100 100 100 100 100 100 100 100 100 100 99 89 100 100 100 100 100 100 100 100 100 100 95 100 100 100 100 100 100 99 100 100
100 100 100 98 100 100 100 100 100 100 100 100 100 100 100 100 100 100 100 100 100 100 100 100 100 100 100 100 100 100 100 100 100 100 100 100 100 100 100 100 100 100 100 100
100 100 100 100 100 100 100 100 100 100 100 100 100 100 100 100 100 95 100 100 100 100 100 100 100 100 100 100 100 100 100 100 100 100 100 98 99 100 100 100 100 100 100 100
100 100 100 100 100 100 100 100 100 100 100 100 100 100 100 100 100 100 100 100 100 100 100 100 100 100 100 100 100 100 100 100 100 100 100 100 100 100 100 100 100 100 100 100

GFSNW_prec_cloud_027.txt.gz
Cloud_Cover
100 100 100 100 87 86 100 77 100 88 6 16 45 18 5 75 56 48 50 56 17 5 5 0 0 0 5 4 3 0 1 0 0 0 0 0 0 0 0 0 0 1 4 1
100 100 100 100 100 100 100 100 100 5 54 60 68 12 91 73 80 68 50 23 23 5 4 2 0 0 0 1 0 0 0 0 0 0 3 5 5 1 0 0 0 0 1 0
100 100 100 100 100 100 100 100 70 5 5 45 54 68 66 68 79 52 34 38 5 4 5 0 0 0 0 4 5 0 0 0 3 5 5 5 5 5 5 3 0 0 0 0
100 100 100 94 90 100 100 100 13 14 81 95 100 99 100 76 84 67 40 16 5 2 0 0 0 0 0 5 5 5 5 5 5 5 4 1 0 0 0 0 0 0 0 2
100 100 100 100 100 94 100 94 7 14 100 29 24 89 90 79 95 86 68 18 5 5 0 0 0 0 0 5 5 5 5 5 3 0 0 0 0 0 0 3 5 5 5 5
100 100 100 100 100 90 98 66 30 89 90 33 99 83 79 64 100 65 39 6 5 5 8 5 2 0 4 4 5 5 5 5 5 7 5 5 9 5 5 6 5 5 5 5
100 100 100 100 100 100 100 65 58 88 87 91 19 27 87 98 100 79 11 5 5 79 84 12 5 5 1 5 5 5 5 14 37 46 5 23 23 39 5 5 5 8 5 5
100 100 100 100 100 16 35 64 82 97 91 34 43 62 74 74 100 12 5 8 46 77 23 5 5 5 5 5 5 7 5 5 38 8 32 36 100 86 5 5 49 5 5 5
100 100 100 100 100 100 100 77 66 59 82 72 60 86 100 19 50 47 76 55 5 91 40 25 6 11 7 7 45 14 5 7 7 73 5 12 100 54 11 18 96 44 13 67
100 100 100 100 100 100 100 83 14 59 100 100 100 100 100 22 27 37 35 83 50 35 45 74 69 11 5 8 9 53 33 12 12 92 8 86 100 94 84 92 38 100 100 100
100 100 100 100 100 100 100 97 61 79 97 100 100 100 100 100 11 5 7 46 100 27 70 75 40 43 40 94 100 99 61 51 98 99 100 100 100 95 93 97 16 36 96 100
100 100 100 100 100 100 100 100 100 99 80 100 100 100 100 100 86 6 22 93 14 5 11 54 68 87 88 61 98 96 100 100 100 100 100 100 60 22 66 46 27 35 97 100
100 100 100 100 100 100 100 100 100 96 90 100 100 100 100 97 96 89 75 100 55 5 5 24 100 61 49 82 100 100 100 100 100 100 100 92 5 41 44 42 9 69 98 100
100 100 100 100 100 100 100 100 100 100 98 97 100 100 100 100 100 100 100 100 48 10 58 87 93 26 96 100 100 100 100 100 98 8 60 8 100 100 87 18 9 100 100 100
100 100 100 100 100 100 100 100 100 100 100 100 100 100 100 100 100 100 100 100 100 100 100 100 100 100 100 100 100 100 100 100 7 5 45 25 83 92 76 27 57 99 100 83
100 100 100 100 100 100 100 100 100 100 100 100 100 100 100 100 100 100 100 100 100 100 100 100 100 100 78 100 100 100 100 7 5 10 75 75 60 5 28 65 88 48 81 74
100 100 100 100 100 100 100 100 100 100 100 100 100 100 100 100 100 100 100 100 100 100 100 100 100 100 95 99 100 100 100 100 99 100 72 61 99 99 100 100 100 100 100 100
100 100 100 100 100 91 100 99 100 100 100 100 100 100 100 100 100 100 100 100 100 98 100 100 100 93 100 100 100 100 100 100 100 95 100 100 100 100 100 100 100 100 100 100
100 100 100 100 91 100 100 100 100 100 70 98 100 100 100 100 100 100 100 100 100 89 100 100 47 100 100 100 100 84 89 100 100 100 100 100 100 100 100 100 100 100 100 100
100 99 100 100 100 100 100 94 41 64 71 100 100 100 100 100 100 100 65 99 100 96 66 100 100 100 100 89 100 100 100 100 100 100 100 100 100 100 100 100 100 100 100 100
100 100 100 100 100 100 97 97 52 76 78 94 100 100 100 100 100 100 95 92 94 100 19 99 98 100 100 100 100 100 100 100 100 100 100 100 100 100 100 100 100 100 100 100
100 100 100 100 100 100 99 93 100 94 100 100 100 100 100 100 100 100 100 100 100 100 100 100 100 100 100 100 100 100 100 100 100 100 100 100 100 100 100 100 100 100 100 100
100 100 100 88 76 90 99 100 100 100 100 100 100 100 100 100 100 100 100 100 100 100 100 100 100 100 100 100 100 100 100 100 100 100 100 100 100 100 100 100 100 100 100 100
100 100 100 100 94 100 100 100 100 100 100 100 100 100 100 100 100 100 100 100 100 100 100 100 100 100 100 98 100 100 99 100 100 100 100 100 100 100 100 100 100 100 100 100
100 100 100 100 100 99 100 100 100 100 100 100 100 100 100 100 100 100 100 100 100 100 98 99 100 100 100 100 100 99 78 98 100 100 100 100 100 100 100 100 100 100 100 100
100 100 100 100 100 100 100 100 100 100 100 100 100 100 100 100 100 100 100 100 83 87 100 100 100 100 100 100 100 100 100 96 83 100 100 100 100 100 100 100 100 100 100 100
100 100 100 100 100 100 100 100 100 100 100 100 100 100 100 100 100 100 100 100 100 100 100 100 100 100 100 100 100 100 100 100 100 100 100 100 100 100 100 100 100 100 100 100

GFSNW_prec_cloud_030.txt.gz
Cloud_Cover
12 100 100 100 90 98 75 5 60 93 100 37 6 24 5 0 0 5 62 5 5 4 3 0 0 0 0 0 0 0 0 0 0 0 0 0 0 0 0 0 0 5 4 1
100 100 100 100 62 100 67 7 95 100 100 9 5 6 5 5 13 54 5 5 5 5 21 4 0 0 0 0 0 0 0 0 0 0 0 0 0 2 0 1 0 0 1 0
100 100 100 100 100 64 24 82 98 100 15 5 21 17 30 35 87 73 5 5 7 17 5 5 3 3 0 0 0 0 0 0 0 0 0 2 6 32 11 5 0 0 0 0
100 100 100 100 100 78 50 58 69 100 5 5 5 59 31 86 59 45 5 38 55 7 5 5 2 0 0 0 0 0 0 0 3 4 15 21 42 23 2 4 2 4 3 4
100 100 100 100 100 31 95 80 100 96 6 6 22 65 100 89 63 50 49 38 13 5 5 4 0 0 0 1 3 6 38 18 5 14 8 7 8 4 5 5 5 5 5 5
100 100 100 100 90 25 100 100 100 92 5 5 7 92 85 78 58 44 46 13 25 15 32 5 4 3 3 6 25 10 7 6 5 7 4 13 81 5 5 44 79 5 5 5
100 100 100 100 100 86 100 100 100 12 5 5 93 92 94 86 63 44 13 29 52 95 28 5 5 5 5 5 5 5 7 5 5 5 5 43 50 32 5 5 5 5 5 48
100 100 100 100 100 100 100 100 90 19 34 20 7 91 94 14 54 22 5 47 75 70 10 5 25 69 85 29 71 45 5 5 34 5 7 85 100 100 39 3 25 79 6 22
100 100 100 100 99 100 100 100 5 33 17 7 8 98 97 81 63 7 5 5 11 54 13 7 7 60 43 25 84 5 5 5 5 56 44 66 100 100 12 6 76 100 100 98
100 100 100 100 100 100 100 97 25 57 5 11 71 100 74 37 42 18 5 28 5 11 76 81 52 56 7 16 5 68 36 38 5 92 13 100 100 93 95 98 89 54 40 14
100 100 100 100 100 100 100 99 8 10 79 64 98 99 100 93 24 6 5 83 95 64 70 57 18 31 71 97 60 47 25 57 93 67 67 48 5 36 91 99 100 100 54 79
100 100 100 100 100 100 100 74 66 63 60 93 100 59 94 51 11 51 22 16 6 20 15 81 72 99 99 56 86 58 27 56 12 92 100 47 59 100 100 100 100 100 99 100
100 100 100 100 100 100 100 99 22 24 69 73 99 97 97 100 100 59 52 90 38 14 59 64 57 50 84 99 100 53 97 95 100 96 100 100 100 100 100 97 51 22 92 100
100 100 100 100 100 100 100 100 84 35 78 98 100 99 100 100 100 100 100 99 87 22 32 92 58 28 66 82 70 100 100 100 100 100 100 24 100 100 78 37 61 100 100 100
100 100 100 100 100 100 100 100 100 100 100 100 100 88 89 100 100 100 100 100 100 100 99 100 95 83 53 97 100 100 100 100 46 10 26 5 39 98 91 92 100 100 100 100
100 100 100 100 100 100 100 100 100 100 100 100 98 100 100 94 96 100 100 100 100 100 100 100 100 100 100 100 100 100 99 6 5 5 5 5 30 56 54 63 100 100 92 50
100 100 100 100 100 100 100 100 100 100 100 100 100 100 100 100 100 100 100 100 100 100 100 100 100 100 32 77 94 100 100 94 77 13 42 83 50 34 41 60 84 100 100 100
100 100 100 100 100 100 100 100 100 100 100 100 100 100 100 100 100 100 100 100 100 100 100 100 100 100 100 100 100 100 74 73 66 68 43 47 98 100 100 100 100 100 100 100
100 100 100 100 100 100 100 100 100 100 100 100 100 100 100 100 100 100 100 100 100 100 100 100 70 100 100 99 100 100 100 100 100 100 100 100 100 100 100 100 100 100 100 100
100 100 100 100 100 100 100 100 100 98 100 100 100 100 100 100 100 100 96 99 100 96 100 100 100 100 100 100 100 100 100 100 100 100 100 100 100 95 100 100 100 100 100 100
100 100 100 100 100 99 86 72 60 46 25 100 100 100 100 100 100 100 72 95 92 100 45 100 100 100 100 100 100 100 100 100 100 72 100 100 100 100 100 100 100 100 100 100
96 99 100 100 100 90 93 90 96 94 100 100 100 100 100 100 100 100 97 87 90 92 79 96 100 100 100 100 100 100 100 100 100 100 100 100 100 100 100 100 100 100 100 100
100 100 100 100 97 99 91 100 100 100 100 100 100 100 99 95 97 99 100 100 100 100 100 100 100 100 100 100 100 100 100 100 99 100 100 97 100 100 100 100 100 100 100 100
100 100 99 99 100 100 100 100 100 100 100 100 100 100 100 100 100 100 100 100 100 100 100 100 100 100 100 100 100 100 100 100 100 100 100 100 100 100 100 100 100 100 100 100
100 100 100 100 100 100 100 100 100 100 100 100 100 100 100 100 100 100 100 100 100 100 100 100 100 100 100 100 99 98 88 72 64 68 95 100 100 90 100 100 100 100 100 100
100 100 100 100 100 100 100 100 100 100 100 100 100 100 100 100 100 100 100 100 100 100 100 100 100 100 97 95 97 80 85 98 100 100 100 100 100 100 100 100 100 100 100 100
100 100 100 100 100 100 100 100 100 100 100 100 100 99 100 77 80 90 99 76 96 100 99 100 100 100 100 100 100 100 100 100 100 100 100 100 100 100 100 100 100 100 100 81

GFSNW_prec_cloud_033.txt.gz
Cloud_Cover
100 100 100 100 100 100 52 0 53 100 90 5 90 100 100 100 98 27 5 1 0 5 5 3 0 0 0 0 0 0 0 0 0 0 0 0 0 0 0 0 0 0 0 0
56 100 100 100 100 30 8 2 86 100 99 90 100 100 84 5 28 5 0 5 44 5 5 0 0 0 0 0 0 0 0 0 0 0 0 0 0 0 0 0 0 0 1 0
100 100 100 100 100 0 0 1 18 74 100 100 100 100 5 8 5 0 80 64 5 5 4 2 3 0 0 0 0 0 0 0 0 0 0 0 1 5 5 5 0 0 4 5
100 100 100 100 100 0 1 3 35 76 100 100 100 99 5 29 53 29 10 5 5 5 4 5 5 5 3 2 0 5 0 0 0 0 0 4 6 31 5 5 5 2 5 5
100 100 100 100 100 15 2 6 100 100 100 100 64 92 5 7 100 29 5 48 24 5 5 5 5 5 5 0 4 5 5 5 5 5 10 83 79 14 5 5 5 5 24 30
100 100 100 100 77 40 99 100 100 100 100 98 50 56 82 88 83 5 26 7 5 5 31 5 4 1 5 5 5 5 5 5 7 69 59 99 100 9 5 5 5 5 5 4
100 100 100 100 100 100 100 100 100 100 100 7 72 97 59 29 37 29 12 18 9 5 5 5 5 5 5 5 20 63 5 5 42 58 8 94 100 69 5 5 5 5 5 5
100 100 100 100 100 100 100 100 100 100 100 5 31 20 5 58 84 64 7 41 10 5 5 5 5 5 5 5 5 8 5 5 8 27 4 9 98 63 22 0 5 3 4 65
100 100 100 100 100 100 100 100 100 100 99 95 72 6 45 97 63 28 40 11 10 27 11 40 45 32 27 79 74 67 49 10 6 92 5 22 100 93 21 5 6 28 100 100
100 100 100 100 100 100 100 100 100 100 100 22 5 5 57 83 74 15 16 43 5 27 32 25 20 54 54 95 100 53 27 38 7 5 30 68 50 34 7 46 62 100 100 100
100 100 100 100 100 100 100 100 100 100 98 13 5 28 84 77 6 27 15 10 12 36 15 7 15 51 73 53 12 7 6 13 34 58 67 5 5 5 52 100 100 100 79 28
100 100 100 100 100 100 100 100 100 100 93 6 5 48 100 53 34 66 6 16 13 5 5 6 73 100 79 70 99 78 91 49 35 96 41 5 7 40 58 85 100 78 6 5
100 100 100 100 100 100 100 100 100 100 86 5 5 33 90 80 38 80 58 16 5 5 6 50 38 32 66 38 46 99 92 78 74 5 45 5 8 19 74 100 87 86 16 47
100 100 100 100 100 100 100 95 100 100 56 99 72 48 78 94 76 52 41 51 87 56 76 66 44 51 99 95 26 100 99 100 14 23 91 98 100 100 100 64 29 8 14 23
100 100 100 100 100 100 100 100 100 100 25 77 88 28 79 95 98 98 75 67 55 61 97 82 100 100 93 73 78 100 100 93 99 100 100 100 100 92 85 55 40 37 45 61
100 100 100 100 100 100 100 100 100 90 6 30 11 40 77 100 100 100 100 100 100 100 100 100 100 100 100 99 100 100 100 100 71 16 30 75 31 8 6 24 59 34 64 71
100 100 100 100 100 100 100 100 100 100 84 59 92 82 80 76 82 99 98 85 68 60 99 100 100 100 69 96 100 100 100 94 91 6 32 43 34 62 28 5 5 6 27 93
100 100 100 100 100 100 100 100 100 99 100 100 100 100 100 100 100 100 100 100 99 100 100 100 100 100 100 100 100 100 100 99 82 44 36 7 9 18 5 34 82 100 100 100
100 100 100 100 100 100 100 100 100 100 100 100 100 100 100 100 100 100 100 100 100 100 100 100 100 100 100 100 100 100 100 100 100 100 68 72 78 88 98 100 100 100 100 100
100 100 100 100 100 100 100 100 100 100 100 100 100 100 100 100 100 100 100 100 100 92 96 100 100 100 100 100 100 100 100 100 100 100 100 100 100 100 100 100 100 100 100 100
100 100 100 100 100 99 96 81 100 100 100 100 100 100 100 100 100 100 100 100 100 100 100 100 100 100 100 100 100 100 100 100 100 100 100 100 100 100 100 100 100 100 100 100
100 100 100 100 98 100 100 96 100 100 100 100 100 100 100 100 100 98 100 100 95 100 100 100 100 100 100 100 100 100 100 100 100 100 100 100 100 100 100 100 100 100 100 100
100 100 100 100 100 99 79 100 100 100 100 100 100 100 100 100 100 100 100 100 100 83 100 100 100 100 100 100 100 100 100 100 100 100 100 100 100 100 100 100 100 100 100 100
100 100 100 80 83 100 100 100 100 100 100 100 100 100 100 100 100 100 100 100 100 100 99 100 100 100 96 100 100 100 100 100 100 100 100 98 87 97 76 86 93 100 100 100
100 100 97 96 100 100 100 100 100 100 100 100 100 100 100 100 100 100 100 100 89 96 99 100 100 100 100 100 100 100 100 100 95 82 84 80 76 92 87 92 97 98 100 100
100 100 100 100 100 100 100 100 100 100 100 100 100 100 100 100 100 100 100 100 100 98 97 100 100 100 100 100 99 98 96 91 77 90 93 99 100 94 99 100 97 75 80 30
100 100 100 100 100 100 100 100 100 100 100 100 100 100 100 100 100 100 100 99 92 100 100 100 100 100 100 100 100 97 98 100 96 83 99 77 74 98 87 40 12 12 9 23